Flag for Germany Weather past 2 weeks in Landsberg am Lech, Bavaria, Germany

Now
39 °F

Chilly.


Feels Like: 35 °F
Forecast: 32 / 55 °F
Wind: 6 mph from East

Location: Landsberg

Current Time: Apr 18, 2015 at 10:11:36 PM

Latest Report: Apr 18, 2015 at 9:20 PM


Visibility: 0 mi

Pressure: 30.18 "Hg

Humidity: 61%

Dew point: 27 °F

Location of Landsberg am LechLocation

Historic Weather in Landsberg am Lech — Graph

°F

Landsberg am Lech temperature yesterday

Maximum temperature yesterday: 59 °F (at 12:20 AM)
Minimum temperature yesterday: 45 °F (at 9:20 PM)
Average temperature yesterday: 52 °F

Past Weeks' High & Low Weather Summary

 TemperatureHumidityPressure
High72 °F (Apr 15, 4:20 PM)100% (Apr 4, 4:20 AM)30.57 "Hg (Apr 4, 4:20 AM)
Low25 °F (Apr 7, 6:20 AM)22% (Apr 10, 2:20 PM)29.86 "Hg (Apr 4, 1:20 PM)
Average47 °F63%30.21 "Hg
* Reported Apr 3 8:20 PM — Apr 18 8:20 PM, Landsberg am Lech, Weather by CustomWeather, © 2015

Note: Actual official high and low records may vary slightly from our data, if they occured in-between our weather recording intervals... More about our weather records

Advertising

Landsberg am Lech weather history for previous 24 hours

 ConditionsComfort  
Time TempWeatherWind HumidityBarometerVisibility
8:20 PM
Sat, Apr 18
43 °FQuite cool.6 mph57%30.18 "HgN/A
7:20 PM46 °FCool.5 mph43%30.18 "HgN/A
6:20 PM48 °FCool.9 mph43%30.18 "HgN/A
5:20 PM48 °FCool.12 mph40%30.18 "HgN/A
4:20 PM46 °FCool.7 mph50%30.18 "HgN/A
3:20 PM48 °FCool.8 mph43%30.18 "Hg5 mi
2:20 PM46 °FCool.8 mph50%30.21 "Hg6 mi
1:20 PM45 °FQuite cool.9 mph49%30.21 "HgN/A
12:20 PM45 °FQuite cool.8 mph49%30.18 "HgN/A
11:20 AM43 °FQuite cool.9 mph57%30.18 "HgN/A
10:20 AM43 °FQuite cool.10 mph71%30.18 "HgN/A
9:20 AM41 °FQuite cool.8 mph70%30.15 "HgN/A
8:20 AM39 °FChilly.7 mph75%30.15 "Hg6 mi
7:20 AM39 °FChilly.6 mph81%30.12 "Hg6 mi
6:20 AM39 °FChilly.6 mph81%30.12 "Hg6 mi
5:20 AM39 °FChilly.7 mph81%30.09 "Hg6 mi
4:20 AM39 °FChilly.8 mph75%30.09 "Hg6 mi
3:20 AM39 °FChilly.7 mph75%30.09 "Hg6 mi
2:20 AMN/A8 mphN/AN/A5 mi
1:20 AM41 °FQuite cool.14 mph76%30.07 "Hg6 mi
12:20 AM45 °FQuite cool.5 mph93%30.04 "Hg4 mi
11:20 PM
Fri, Apr 17
45 °FQuite cool.6 mph93%30.04 "Hg4 mi
10:20 PM45 °FQuite cool.5 mph93%30.01 "Hg4 mi
Weather by CustomWeather, © 2015

See weather overviewHow to use our weather pages